DateTimeUTC,F1_A11,F1_S11,BsB_S11,BsG_S11,BsR_S11,BbsB_S11,BbsG_S11,BbsR_S11,BaB_A11,BaG_A11,BaR_A11,Tu_S11,T_S11,Uu_S11,U_S11,P_S11,T1_A11
2021-06-30T12:00:00Z,00000200,20000000,,,,,,,-000.38,-000.07,-000.42,17.6,24.0,05.5,03.7,0661.4,31.0
2021-06-30T12:01:00Z,00000200,20000000,,,,,,,-000.07,-000.21,0000.02,17.6,24.0,05.5,03.7,0661.4,31.0
2021-06-30T12:02:00Z,00000200,20000000,,,,,,,0000.10,-000.13,0000.08,17.6,24.0,05.5,03.7,0661.4,31.0
2021-06-30T12:03:00Z,00000200,60000000,,,,,,,-000.20,-000.09,-000.19,17.6,24.0,05.5,03.7,0661.4,31.0
2021-06-30T12:04:00Z,00000200,40000000,0000.72,0000.54,0000.41,0000.25,-000.05,-000.22,0000.10,0000.07,-000.08,17.6,23.8,05.7,03.9,0662.3,30.9
2021-06-30T12:05:00Z,00000200,00000000,0000.28,0000.51,0000.09,-000.09,0000.06,-000.20,0000.10,-000.39,0000.08,17.5,23.7,05.6,03.9,0662.4,30.9
2021-06-30T12:06:00Z,00000200,00000000,0000.58,0000.21,0000.25,-000.10,0000.03,0000.01,0000.01,0000.14,-000.15,17.4,23.6,05.7,03.9,0662.4,30.9
2021-06-30T12:07:00Z,00000200,00000000,0001.57,0000.46,0000.25,0000.69,0000.29,-000.02,0000.23,0000.49,0000.19,17.3,23.5,05.8,03.9,0662.4,30.9
2021-06-30T12:08:00Z,00000200,00000000,0001.08,0000.25,0000.36,0000.02,0000.11,-000.10,0000.21,0000.08,0000.22,17.2,23.5,05.9,04.0,0662.4,30.8
2021-06-30T12:09:00Z,00000200,00000000,0000.54,0000.24,0000.27,-000.23,-000.03,-000.09,0000.34,0000.27,0000.16,17.2,23.4,05.9,04.0,0662.4,30.9
2021-06-30T12:10:00Z,00000200,00000000,0000.62,0000.45,0000.25,0000.27,0000.02,0000.04,0000.09,0000.11,0000.06,17.3,23.5,05.9,04.0,0662.4,30.9
2021-06-30T12:11:00Z,00000200,00000000,0000.57,0000.35,0000.01,0000.48,0000.28,-000.55,0000.38,0000.42,0000.59,17.4,23.5,06.0,04.1,0662.4,30.9
2021-06-30T12:12:00Z,00000200,00000000,0001.01,0000.48,-000.03,-000.07,0000.03,0000.03,0000.15,0000.27,-000.05,17.5,23.6,05.9,04.1,0662.4,31.0
2021-06-30T12:13:00Z,00000200,00000000,0001.11,0000.52,0000.23,-000.21,-000.14,-000.22,0000.33,0000.23,0000.37,17.7,23.7,05.9,04.1,0662.5,31.0
2021-06-30T12:14:00Z,00000200,00000000,0000.88,0000.62,0000.37,0000.28,0000.29,0000.11,0000.19,0000.29,-000.00,17.8,23.7,05.9,04.1,0662.5,31.0
2021-06-30T12:15:00Z,00000200,00000000,0001.32,0000.36,0000.18,0000.22,0000.15,-000.12,0000.00,0000.04,0000.18,17.9,23.8,05.7,04.0,0662.5,31.1
2021-06-30T12:16:00Z,00000200,00000000,0001.24,0000.44,0000.32,0000.26,0000.06,0000.11,0000.05,0000.08,0000.19,18.1,23.9,05.7,04.0,0662.5,31.1
2021-06-30T12:17:00Z,00000200,00000000,0001.03,0000.41,-000.09,-000.17,0000.04,0000.14,0000.38,0000.40,0000.14,18.2,24.0,05.7,04.0,0662.6,31.1
2021-06-30T12:18:00Z,00000200,00000000,0000.79,0000.66,0000.24,-000.09,-000.01,-000.26,0000.02,0000.03,0000.16,18.3,24.1,05.6,03.9,0662.6,31.1
2021-06-30T12:19:00Z,00000200,00000000,0000.64,0000.49,0000.27,0000.29,0000.05,-000.02,0000.34,0000.20,-000.01,18.4,24.1,05.6,04.0,0662.6,31.1
2021-06-30T12:20:00Z,00000200,00000000,0000.78,0000.36,0000.09,0000.26,0000.15,-000.05,0000.16,0000.35,0000.23,18.5,24.2,05.6,04.0,0662.7,31.2
2021-06-30T12:21:00Z,00000200,00000000,0000.19,0000.47,-000.07,-000.20,0000.04,0000.10,-000.23,-000.04,-000.22,18.6,24.3,05.6,04.0,0662.6,31.2
2021-06-30T12:22:00Z,00000200,00000000,0000.39,0000.28,0000.11,0000.26,-000.03,0000.12,0000.04,0000.02,0000.16,18.7,24.4,05.4,03.9,0662.7,31.2
2021-06-30T12:23:00Z,00000200,00000000,0001.05,0000.33,0000.07,0000.06,0000.26,0000.13,0000.35,0000.52,0000.16,18.7,24.4,05.4,03.9,0662.7,31.1
2021-06-30T12:24:00Z,00000200,00000000,0001.15,0000.40,0000.10,-000.07,-000.03,-000.02,-000.16,-000.34,0000.04,18.8,24.4,05.4,03.8,0662.7,31.1
2021-06-30T12:25:00Z,00000200,00000000,0000.32,0000.43,0000.16,0000.30,0000.04,0000.18,-000.17,0000.12,-000.28,18.8,24.4,05.3,03.8,0662.7,31.2
2021-06-30T12:26:00Z,00000200,00000000,0000.49,0000.45,0000.39,-000.19,0000.24,-000.03,0000.09,0000.22,0000.14,18.7,24.4,05.3,03.7,0662.7,31.1
2021-06-30T12:27:00Z,00000200,00000000,0000.87,0000.69,0000.31,0000.03,0000.12,0000.22,0000.44,0000.13,0000.31,18.7,24.4,05.1,03.6,0662.7,31.1
2021-06-30T12:28:00Z,00000200,00000000,0001.16,0000.60,0000.39,-000.09,0000.27,-000.06,0000.33,0000.13,0000.27,18.7,24.4,05.3,03.7,0662.8,31.1
2021-06-30T12:29:00Z,00000200,00000000,0000.54,0000.43,0000.21,-000.01,0000.23,-000.01,-000.01,-000.14,0000.15,18.7,24.5,05.3,03.7,0662.8,31.1
2021-06-30T12:30:00Z,00000200,00000000,0001.06,0000.29,0000.48,-000.30,-000.18,0000.05,-000.23,0000.24,-000.03,18.7,24.5,05.3,03.7,0662.8,31.1
2021-06-30T12:31:00Z,00000200,00000000,0000.77,0000.58,-000.04,0000.38,0000.12,-000.14,0000.14,0000.26,-000.09,18.7,24.5,05.3,03.7,0662.7,31.1
2021-06-30T12:32:00Z,00000200,00000000,0000.96,0000.48,0000.48,0000.01,-000.19,0000.19,0000.48,-000.01,0000.45,18.7,24.5,05.2,03.6,0662.7,31.1
2021-06-30T12:33:00Z,00000200,00000000,-000.33,0000.64,0000.20,-000.84,0000.16,0000.17,-000.21,0000.03,-000.17,18.7,24.5,05.2,03.6,0662.8,31.1
2021-06-30T12:34:00Z,00000200,00000000,0000.73,0000.21,0000.56,0000.29,0000.03,-000.11,-000.02,-000.20,-000.12,18.7,24.5,05.3,03.7,0662.8,31.1
2021-06-30T12:35:00Z,00000200,00000000,0000.46,0000.56,0000.22,0000.04,0000.16,-000.40,0000.31,0000.18,-000.15,18.7,24.5,05.2,03.6,0662.8,31.1
2021-06-30T12:36:00Z,00000200,00000000,0000.61,0000.32,0000.56,-000.33,0000.11,0000.07,0000.09,0000.55,0000.38,18.6,24.5,05.2,03.6,0662.9,31.1
2021-06-30T12:37:00Z,00000200,00000000,0001.11,0000.38,0000.33,0000.13,0000.02,0000.07,0000.48,0000.17,-000.04,18.6,24.5,05.3,03.7,0662.9,31.1
2021-06-30T12:38:00Z,00000200,00000000,0001.07,0000.09,-000.38,-000.22,0000.17,-000.11,-000.02,0000.08,0000.35,18.6,24.5,05.2,03.6,0662.8,31.1
2021-06-30T12:39:00Z,00000200,00000000,0000.90,0000.55,0000.03,0000.23,-000.01,0000.04,-000.02,-000.18,-000.13,18.6,24.5,05.2,03.7,0662.9,31.1
2021-06-30T12:40:00Z,00000200,00000000,-000.05,0000.55,0000.25,-000.01,0000.10,0000.09,0000.50,0000.00,0000.17,18.6,24.5,05.1,03.6,0662.9,31.1
2021-06-30T12:41:00Z,00000200,00000000,0000.92,0000.33,0000.43,-000.01,0000.19,0000.46,0000.18,0000.45,0000.11,18.6,24.5,05.1,03.6,0662.9,31.1
2021-06-30T12:42:00Z,00000200,00000000,0001.36,0000.41,0000.19,-000.10,0000.02,0000.23,-000.05,0000.09,0000.04,18.6,24.5,05.4,03.7,0662.9,31.1
2021-06-30T12:43:00Z,00000200,00000000,0000.37,0000.41,0000.17,-000.33,0000.09,0000.16,0000.26,0000.16,0000.26,18.6,24.5,05.3,03.7,0662.9,31.1
2021-06-30T12:44:00Z,00000200,00000000,0000.45,0000.65,0000.31,0000.50,-000.13,0000.12,0000.30,-000.19,-000.01,18.6,24.5,05.4,03.8,0662.9,31.1
2021-06-30T12:45:00Z,00000200,00000000,0000.99,0000.33,0000.20,-000.06,-000.17,0000.23,0000.22,0000.57,0000.22,18.6,24.5,05.5,03.9,0663.0,31.1
2021-06-30T12:46:00Z,00000200,00000000,0001.15,0000.58,0000.45,-000.01,0000.21,0000.03,0000.05,0000.19,0000.14,18.6,24.5,05.6,03.9,0663.0,31.1
2021-06-30T12:47:00Z,00000200,00000000,0000.78,0000.42,0000.38,-000.18,-000.18,0000.20,0000.17,0000.11,0000.05,18.6,24.5,05.7,03.9,0663.0,31.1
2021-06-30T12:48:00Z,00000200,00000000,0001.53,0000.59,-000.15,0000.16,-000.15,-000.07,0000.11,-000.06,0000.06,18.6,24.5,05.7,04.0,0663.0,31.1
2021-06-30T12:49:00Z,00000200,00000000,0000.92,0000.23,0000.42,0000.03,0000.17,0000.12,-000.02,0000.02,0000.14,18.6,24.5,05.8,04.0,0663.0,31.1
2021-06-30T12:50:00Z,00000200,00000000,0000.92,0000.40,-000.01,-000.31,0000.05,0000.03,0000.43,0000.32,0000.15,18.6,24.5,05.9,04.1,0663.0,31.1
2021-06-30T12:51:00Z,00000200,00000000,0000.72,0000.38,0000.18,-000.24,-000.12,0000.09,0000.12,0000.27,0000.30,18.6,24.5,05.8,04.0,0663.0,31.1
2021-06-30T12:52:00Z,00000200,00000000,0000.55,0000.15,-000.08,0000.57,0000.22,0000.04,-000.05,0000.08,-000.22,18.6,24.5,05.6,03.9,0663.0,31.1
2021-06-30T12:53:00Z,00000200,00000000,0000.84,0000.81,0000.26,0000.01,-000.03,0000.05,-000.12,-000.12,0000.21,18.6,24.5,05.5,03.8,0663.0,31.1
2021-06-30T12:54:00Z,00000200,00000000,0000.37,0000.77,0000.21,0000.12,-000.01,-000.00,0000.43,0000.33,-000.05,18.6,24.5,05.3,03.7,0663.0,31.1
2021-06-30T12:55:00Z,00000200,00000000,0000.59,0000.50,0000.33,0000.09,0000.24,-000.09,0000.19,0000.34,0000.55,18.6,24.5,05.3,03.7,0663.0,31.1
2021-06-30T12:56:00Z,00000200,00000000,0000.82,0000.93,0000.13,-000.49,0000.31,-000.27,-000.16,-000.18,-000.25,18.6,24.5,05.5,03.9,0663.1,31.1
2021-06-30T12:57:00Z,00000200,40000000,,,,,,,-000.04,-000.10,-000.18,18.6,24.5,05.0,03.5,0663.0,31.1
2021-06-30T12:58:00Z,00000200,60000000,,,,,,,0000.09,-000.10,0000.10,18.4,24.6,05.4,03.7,0662.1,31.1
2021-06-30T12:59:00Z,00000200,20000000,,,,,,,0000.11,0000.09,-000.17,18.4,24.7,05.4,03.7,0662.1,31.1
